Location: Newark
(29.9790°N, 31.1340°E)
Time: 09:22:31
(UTC+00:00)

Vanguard 3 - Pass Details

Date: 21 January 2021
Orbit: 508 x 3262 km, 33.4° (Epoch: 07 March)

Event Time Altitude Azimuth Distance (km) Brightness Sun altitude
Exits shadow 03:35:28 21° 273° (W) 2,765 9.2 -16.3°
Maximum altitude 03:42:19 76° 356° (N) 1,953 8.9 -14.9°
Drops below altitude 10° 03:58:17 10° 83° (E) 5,649 12.6 -11.5°
Sets 04:03:26 0° 85° (E) 6,942 13.3 -10.5°
